Regional Weather Roundup
Issued by NWS Charleston, SC

Current Version | Previous Version | Text Only | Print | Product List | Glossary Off
Versions: 1 2 3 4 5 6 7 8 9 10 11 12 13 14 15 16 17 18 19 20 21 22 23 24 25 26 27 28 29 30 31 32 33 34 35 36 37 38 39 40 41 42 43 44 45 46 47 48 49 50

000
ASUS42 KCHS 240925
RWRCHS

REGIONAL WEATHER ROUNDUP
NATIONAL WEATHER SERVICE CHARLESTON SC
500 AM EDT THU APR 24 2014

NOTE: "FAIR" INDICATES FEW OR NO CLOUDS BELOW 12,000 FEET WITH NO
SIGNIFICANT WEATHER AND/OR OBSTRUCTIONS TO VISIBILITY.

NOT ALL STATIONS ARE QUALITY CONTROLLED BY THE NATIONAL
WEATHER SERVICE. USE DATA WITH CAUTION...ESPECIALLY
DEWPOINT OBSERVATIONS.

SCZ027-030-031-034>040-042>050-241000-
...SOUTH CAROLINA...

CITY           SKY/WX    TMP DP  RH WIND       PRES   REMARKS
N CHARLESTON   CLEAR     58  51  78 NE5       29.96R
WATERFRONT PRK   N/A     64 N/A N/A E13         N/A
FORT JOHNSON     N/A     64  61  88 E5        30.00R
MOUNT PLEASANT LGT RAIN  59  54  82 CALM      29.96R
JOHNS ISLAND   SUNNY     63  61  94 NE8       29.96S
PINOPOLIS        N/A     61  52  72 E10       29.88R
MONCKS CORNER  FAIR      55  52  88 NE5       29.97R
SUMMERVILLE    NOT AVBL
BEAUFORT MCAS  CLEAR     62  55  77 E5        29.94R
BEAUFORT ARPT  FAIR      61  61 100 NE7       29.94R
HILTON HEAD IS CLEAR     57  57 100 N3        29.95R
GEORGETOWN     NOT AVBL
WALTERBORO     SUNNY     55  50  82 NE5       29.98R
ORANGEBURG     CLEAR     55  41  59 NE6       29.99R
BARNWELL       FAIR      55  43  62 NE8       29.98S
AIKEN          FAIR      54  41  62 E7        30.03R
MANNING        FAIR      54  45  71 N5        30.00R
KINGSTREE      NOT AVBL
COLUMBIA       CLEAR     59  33  37 NE7       30.00R
SUMTER         CLEAR     49  37  63 NE8       29.99R
FLORENCE       CLEAR     52  37  56 NE8       30.00R
MYRTLE BEACH   CLEAR     54  41  62 N10       29.99R
N MYRTLE BEACH CLEAR     51  41  68 NE9       29.99R

$$

GAZ063-065-086>088-099>101-113>116-118-119-134-136>141-150-241000-
...GEORGIA...

CITY           SKY/WX    TMP DP  RH WIND       PRES   REMARKS
SAVANNAH ARPT  CLEAR     57  54  89 CALM      29.94R
HUNTER AAF     CLEAR     57  55  94 CALM      29.92R
FORT STEWART   CLEAR     56  56 100 CALM      29.92R
STATESBORO     NOT AVBL
SYLVANIA       SUNNY     54  51  90 CALM      29.95S
CLAXTON        FAIR     N/A N/A N/A CALM      29.94S HAZE
THOMSON          N/A     45  45 100 NE6       30.03R
AUGUSTA-BUSH   CLEAR     47  45  93 CALM      29.98R
AUGUSTA-DANIEL CLEAR     62  36  37 NE9       29.99R
SWAINSBORO     FAIR      46  46 100 CALM      29.95S
VIDALIA        CLEAR     55  50  82 CALM      29.94S
ALMA           CLEAR     56  54  93 CALM      29.94S FOG
WAYCROSS       NOT AVBL
JESUP          FAIR      52  52 100 CALM      29.94S FOG
BRUNSWICK      MOCLDY    59  57  94 CALM      29.94S VSB 3/4
SAINT SIMONS   PTCLDY    63  61  93 CALM      29.93R

$$

SCZ027-028-034-036>038-045-046-048>050-GAZ119-141-241000-
...LAKE AND SUPPLEMENTAL COASTAL OBSERVATIONS...

STATION/POSITION TIME  TEMP    WIND        PRES    WAVE   SWELL
                       AIR SEA DIR/SP/G            HT/PER HT/PER/DIR
                 (UTC) (F)     (DEG/KT/KT) (MB)    (FT/S) (FT/S/D)
UPR LAKE MARION  NOT AVBL
WINYAH BAY       0900   62      20/  3     1015.0R
LAKE MURRAY      0900   57      30/  2/  4 1015.6R
ACE BASIN NERRS  0900   60        CALM     1014.0S
FORT PULASKI     0900   62 60  210/  1/  2 1013.7F
SAPELO ISLAND    0900   62     190/  2     1013.0S

$$

ANZ835-935-AMZ111-154-330-350-352-354-374-450-454-472-241000-
...C-MAN AND BUOY OBSERVATIONS...

STATION/POSITION TIME  TEMP    WIND        PRES    WAVE   SWELL
                       AIR SEA DIR/SP/G            HT/PER HT/PER/DIR
                 (UTC) (F)     (DEG/KT/KT) (MB)    (FT/S) (FT/S/D)
FOLLY BEACH CMAN 0900   65      60/ 11/ 12 1014.7R
BUOY 41004       0900   70 70   70/ 14/ 17 1013.3R   2/ 8   2/ 8
BUOY 41008       0900   68 67  210/  6/  8 1013.3R   1/ 8   2/100/ 8
5E ST. MARYS GA  0900      68                N/A     1/ 8
FRYING PAN BUOY  0900   68 68   50/  8/  8 1014.4R   3/ 8   2/100/ 8
BUOY 41025       0900   57 75  360/ 25/ 29 1015.1R   5/ 8   2/120/14
CAPE LOOKOUT NC  0900   59      30/ 12/ 13 1016.0R
BUOY 41002       NOT AVBL
BUOY 41010       0900   73 75  260/  2/  4 1014.4R   2/ 8   2/ 60/ 8
BUOY 41012       NOT AVBL
ST AUGUSTINE FL  0900   65     220/  3/  4 1014.5R
CAPERS NEARSHORE NOT AVBL
FRIPP NEARSHORE  0800   64      CALM  /  2   N/A


$$



USA.gov is the U.S. government's official web portal to all federal, state and local government web resources and services.